This is the latest recevied weather packets stored in our database for station/object AG7BI. If no packets are shown the sender has not sent any weather packets the latest 10 day(s).
| Time | Temp. | Humidity | Pressure | Rain* | Wind** | Luminosity | Snow |
|---|---|---|---|---|---|---|---|
| 1777599652 | 17.22° C | 58% | 1016.7 hPa | 0 mm | - | - | - |
| 1777599352 | 17.22° C | 58% | 1016.6 hPa | 0 mm | - | - | - |
| 1777599052 | 17.22° C | 58% | 1016.6 hPa | 0 mm | - | - | - |
| 1777598752 | 17.22° C | 57% | 1016.8 hPa | 0 mm | - | - | - |
| 1777598452 | 17.22° C | 59% | 1016.7 hPa | 0 mm | - | - | - |
| 1777598152 | 17.22° C | 58% | 1016.8 hPa | 0 mm | - | - | - |
| 1777597852 | 17.22° C | 58% | 1016.8 hPa | 0 mm | - | - | - |
| 1777597552 | 17.22° C | 57% | 1016.8 hPa | 0 mm | - | - | - |
| 1777597252 | 17.22° C | 57% | 1017 hPa | 0 mm | - | - | - |
| 1777596952 | 17.22° C | 58% | 1017 hPa | 0 mm | - | - | - |
| 1777596652 | 17.22° C | 59% | 1016.7 hPa | 0 mm | - | - | - |
| 1777596352 | 17.22° C | 60% | 1017.2 hPa | 0 mm | - | - | - |
| 1777596052 | 17.22° C | 59% | 1016.9 hPa | 0 mm | - | - | - |
| 1777595752 | 17.22° C | 58% | 1017.3 hPa | 0 mm | - | - | - |
| 1777595452 | 17.22° C | 58% | 1017.1 hPa | 0 mm | - | - | - |
| 1777595152 | 17.22° C | 61% | 1017.2 hPa | 0 mm | - | - | - |
| 1777594852 | 17.22° C | 59% | 1017.4 hPa | 0 mm | - | - | - |
| 1777594552 | 17.22° C | 59% | 1017.2 hPa | 0 mm | - | - | - |
| 1777594252 | 17.22° C | 58% | 1017.6 hPa | 0 mm | - | - | - |
| 1777593952 | 17.78° C | 60% | 1017.1 hPa | 0 mm | - | - | - |
| 1777593652 | 17.78° C | 59% | 1017.4 hPa | 0 mm | - | - | - |
| 1777593352 | 17.78° C | 58% | 1017.5 hPa | 0 mm | - | - | - |
| 1777593052 | 17.78° C | 59% | 1017.5 hPa | 0 mm | - | - | - |
| 1777592752 | 17.78° C | 61% | 1017.5 hPa | 0 mm | - | - | - |
| 1777592452 | 17.78° C | 59% | 1017.5 hPa | 0 mm | - | - | - |
* Rain latest hour (hover to see other rain measurements)
** Current wind speed in m/s (hover to see current wind gust speed)